Location: Unspecified
(0.0000°N, 0.0000°E)
Time: 02:15:57
(UTC+02:00)

Iridium 15 - Visible Passes

Search period start: 27 April 2015 00:00
Search period end: 07 May 2015 00:00
Orbit: 776 x 779 km, 86.4° (Epoch: 26 April)

Date Brightness Start Highest point End Pass type
(mag) Time Alt. Az. Time Alt. Az. Time Alt. Az.
03 May 8.4 22:30:58 10° NNW 22:31:50 15° NNW 22:31:50 15° NNW visible
04 May 7.8 21:57:24 10° N 21:59:06 21° NNE 21:59:06 21° NNE visible
05 May 7.6 21:24:36 10° NNE 21:26:25 19° NE 21:26:25 19° NE visible
05 May 9.0 23:06:42 10° NW 23:06:56 11° WNW 23:06:56 11° WNW visible
06 May 8.0 20:53:11 10° ENE 20:53:46 11° ENE 20:53:46 11° ENE visible
06 May 7.9 22:31:29 10° NNW 22:34:18 26° NW 22:34:18 26° NW visible
